Location: Fredericksburg
(30.2750°N, 98.8720°W)
Time: 04:29:54
(UTC-05:00)

Daily predictions for brighter satellites

Satellite Brightness Start Highest point End
(mag) Time Altitude Azimuth Time Altitude Azimuth Time Altitude Azimuth
Cosmos 2237 Rocket 3.7 00:16:11 10° NW 00:20:07 29° W 00:20:07 29° W
ATLAS 3B R/B 3.4 00:43:00 10° NW 00:47:56 44° WNW 00:47:56 44° WNW
Cosmos 2263 Rocket 4.1 00:54:57 21° NE 00:54:57 21° NE 00:56:56 10° NE
CZ-4C R/B 3.6 00:58:31 10° NNW 01:05:28 45° ENE 01:05:36 45° ENE
USA 238 DEB 4.1 01:00:22 10° NNW 01:05:56 59° NNW 01:05:56 59° NNW
USA 238 4.1 01:00:28 10° NNW 01:06:02 59° NNW 01:06:02 59° NNW
SL-16 R/B 4.3 01:12:28 10° NW 01:14:25 18° WNW 01:14:25 18° WNW
SeaSat 1 4.4 01:20:10 26° NNW 01:20:10 26° NNW 01:22:17 10° NNW
NOSS 3-2 (C) 4.5 01:33:43 10° NNW 01:41:12 53° ENE 01:41:26 53° ENE
CZ-2C R/B 4.5 02:03:48 38° NNE 02:03:48 38° NNE 02:07:20 10° N
NOSS 3-2 (A) 4.1 01:54:27 10° NNW 02:01:08 70° NNW 02:01:08 70° NNW
Cosmos 1844 Rocket 3.9 02:33:05 38° NE 02:33:05 38° NE 02:36:33 10° NNE
Cosmos 2263 Rocket 4.2 02:36:37 20° NW 02:36:37 20° NW 02:39:52 10° NNW
CZ-4C R/B 4.3 02:47:21 10° NW 02:50:45 25° WNW 02:50:45 25° WNW
Cosmos 2278 Rocket 3.0 03:04:33 46° ENE 03:04:33 46° ENE 03:08:47 10° NNE
Meteor 1-11 Rocket 4.4 03:06:16 51° ENE 03:06:16 51° ENE 03:11:25 10° NNE
CENTAUR R/B 3.5 03:04:44 10° NNW 03:12:37 59° ENE 03:18:09 22° SE
Cosmos 1821 Rocket 4.1 03:14:15 75° NNE 03:14:15 75° NNE 03:20:05 10° N
COSMOS 2406 4.2 03:13:34 10° NNW 03:17:10 39° NW 03:17:10 39° NW
NPP 4.1 03:31:05 10° N 03:35:31 55° NNW 03:35:31 55° NNW
ERS-2 4.3 03:44:04 10° N 03:45:34 22° N 03:45:34 22° N
Meteor 2-4 Rocket 4.3 03:42:31 10° N 03:47:42 49° E 03:48:47 42° ESE
CZ-2D R/B 3.3 03:42:46 10° NNE 03:47:46 35° E 03:48:54 32° ESE
ARIANE 5 R/B 3.1 03:43:06 10° NNE 03:47:58 48° E 03:48:01 48° ESE
Cosmos 1315 Rocket 4.1 03:51:54 38° ENE 03:51:54 38° ENE 03:54:56 10° NNE
SL-08 R/B 4.0 03:53:07 47° NW 03:53:07 47° NW 03:56:42 10° NNW
Cosmos 1331 Rocket 4.4 03:58:40 50° ESE 03:59:07 52° ESE 04:04:10 10° NNE
Cosmos 1140 Rocket 3.6 03:54:20 10° NNW 03:58:38 62° NW 03:58:38 62° NW
IRS-1C 4.5 03:59:06 10° N 04:04:02 51° WNW 04:04:02 51° WNW
Cosmos 1975 4.3 04:10:40 28° ESE 04:11:16 30° E 04:14:45 10° NNE
Cosmos 2100 Rocket 4.3 04:09:32 36° SSE 04:12:01 61° E 04:18:13 10° NNE
UNKNOWN OBJECT B 3.9 04:10:43 10° NNE 04:14:33 39° E 04:14:57 37° ESE
Resurs 1-4 Rocket 2.1 04:12:49 10° NNE 04:18:07 74° ESE 04:19:20 53° S
ASC 2 Rocket 4.3 04:20:48 33° SE 04:20:48 33° SE 04:23:35 10° ESE
ADEOS 4.1 04:16:14 10° N 04:21:05 41° WNW 04:21:12 40° WNW
Cosmos 1025 Rocket 4.3 04:20:25 10° NNW 04:22:58 29° NW 04:22:58 29° NW
EO 1 Del DPAF 3.6 04:27:27 53° ESE 04:28:05 63° ENE 04:31:55 10° N
Cosmos 1850 Rocket 4.1 04:23:17 10° NNW 04:28:21 53° WSW 04:28:21 53° WSW
Cosmos 1455 Rocket 3.4 04:30:38 50° WNW 04:30:38 50° WNW 04:34:43 10° N
Cosmos 2369 Rocket 4.5 04:28:36 10° SE 04:32:15 18° E 04:35:54 10° ENE
Cosmos 1447 Rocket 4.3 04:26:24 10° N 04:32:32 74° W 04:35:00 38° SSW
Cosmos 1741 Rocket 4.2 04:27:38 10° NNW 04:32:41 49° WSW 04:32:41 49° WSW
Okean 2 3.4 04:29:36 10° NNW 04:33:22 62° WNW 04:33:22 62° WNW
Cosmos 1626 Rocket 4.3 04:31:30 10° N 04:35:47 51° E 04:38:31 21° SSE
PSLV R/B 4.2 04:36:56 41° NNW 04:36:56 41° NNW 04:40:05 10° NE
ATLAS 5 CENTAUR R/B 2.3 04:32:42 10° NNW 04:38:55 79° WSW 04:45:26 10° SSE
Cosmos 1302 Rocket 4.0 04:37:31 40° S 04:39:24 75° ESE 04:44:38 10° NNE
Okean O Rocket 2.5 04:36:15 10° NNE 04:40:23 43° E 04:42:32 25° SSE
Atlas Centaur 2 3.6 04:40:34 31° SSW 04:43:56 45° SSE 04:51:56 10° E
MTI 4.4 04:43:19 41° SE 04:44:10 56° ENE 04:47:24 10° N
ATLAS 2A CENTAUR R/B 4.1 04:42:21 26° WSW 04:47:31 59° S 05:39:11 10° ESE
Cosmos 2278 Rocket 4.0 04:46:24 15° WNW 04:47:39 16° WNW 04:50:59 10° NNW
UNK 3.6 04:46:10 40° S 04:47:47 71° WSW 04:52:26 10° NNW
Cosmos 614 Rocket 4.4 04:44:08 10° NW 04:48:50 37° W 04:48:58 37° WSW
USA 234 3.1 04:42:41 10° SE 04:49:13 83° SW 04:55:46 10° NW
Timation 2 Rocket 3.8 04:44:52 10° NNW 04:50:46 58° WSW 04:55:04 19° S
Timation 1 Rocket 4.3 04:48:17 36° SSW 04:50:52 76° WNW 04:56:54 10° NNE
Cosmos 2061 Rocket 4.0 04:48:53 32° SSW 04:51:54 66° W 04:58:16 10° N
IRS-1D 4.5 04:57:41 10° NNW 05:01:57 29° WNW 05:03:14 26° W
CENTAUR R/B 3.9 04:56:27 10° NW 05:02:59 27° WSW 05:05:07 25° SW
Cosmos 2016 Rocket 4.0 05:03:47 22° SSW 05:07:58 68° W 05:14:12 10° N
Fermi 4.4 05:09:11 33° SSW 05:09:41 35° S 05:13:25 10° ESE
SL-16 R/B 2.9 05:07:01 21° SSW 05:10:54 44° W 05:16:49 10° NNW
Yuri Rocket 3.9 05:06:55 20° W 05:11:00 46° SSW 05:15:43 10° SE
Centaur D-1AR AC-48 4.0 05:14:16 11° S 05:14:16 11° S 05:14:27 10° S
Cosmos 2082 Rocket 2.1 05:06:19 10° NNW 05:11:59 68° WSW 05:17:36 10° S
CZ-4B R/B 3.3 05:07:31 10° NNE 05:13:13 84° ESE 05:18:08 14° SSW
Cosmos 1174 3.3 05:12:24 10° NW 05:15:30 45° WSW 05:16:01 40° SW
Cosmos 1500 3.3 05:15:36 28° SSW 05:17:27 59° W 05:21:18 10° N
Cosmos 1743 2.9 05:15:11 15° S 05:18:17 68° E 05:22:04 10° NNE
MOZ.5/SAFIR/RUBIN 5/SL-8 4.1 05:16:38 10° SSE 05:21:22 70° ENE 05:26:08 10° N
Cosmos 1864 Rocket 4.5 05:15:51 11° S 05:21:59 83° W 05:28:22 10° N
CZ-3C R/B 2.5 05:21:06 16° S 05:22:07 18° SSE 05:26:52 10° SE
Cosmos 1486 Rocket 4.0 05:16:47 10° NNW 05:22:08 85° WSW 05:27:27 10° SSE
Cosmos 1515 3.6 05:19:19 10° N 05:23:07 75° W 05:26:56 10° S
Cosmos 1725 Rocket 4.0 05:18:50 11° S 05:24:48 76° W 05:31:03 10° N
CZ-2D R/B 4.3 05:22:49 10° NNW 05:26:24 31° WNW 05:28:16 21° WSW
ARIANE 5 R/B 4.3 05:23:58 10° NW 05:26:38 15° WNW 05:28:22 12° W
CZ-2D R/B 3.5 05:23:20 10° NNW 05:27:34 23° WNW 05:30:13 16° WSW
BREEZE-M DEB (TANK) 4.2 05:23:16 12° SSW 05:30:25 42° SE 05:34:22 10° ENE
USA 129 2.6 05:32:30 29° WNW 05:32:30 29° WNW 05:34:03 10° NNW
Cosmos 1346 Rocket 3.1 05:30:27 10° NNW 05:34:18 46° W 05:38:06 10° SSW
SME Rocket 4.2 05:33:48 18° WSW 05:34:19 19° W 05:37:07 10° NW
Cosmos 2098 Rocket 2.7 05:32:43 16° SSW 05:35:26 65° W 05:39:43 10° N
CZ-2C R/B 3.9 05:33:30 10° S 05:38:07 54° W 05:42:48 10° NNW
SL-8 R/B 3.9 05:36:56 17° WSW 05:40:32 63° NW 05:45:17 10° NE
Cosmos 2084 4.4 05:39:27 16° WSW 05:41:47 28° NW 05:45:09 10° N
USA 229 DEB 4.5 05:35:10 10° NNW 05:42:14 61° ENE 05:49:19 10° SE
USA 229 4.5 05:35:16 10° NNW 05:42:19 60° ENE 05:49:23 10° SE
Cosmos 1066 Rocket 4.1 05:37:20 10° NNW 05:42:43 70° W 05:48:01 10° S
Skynet4D Del rocket 4.4 05:43:04 13° WSW 05:46:57 28° SSW 05:51:37 10° SE
Cosmos 1833 Rocket 3.1 05:42:01 10° NW 05:47:14 40° WSW 05:52:25 10° S
Cosmos 1825 Rocket 3.5 05:45:21 10° NNW 05:49:42 67° W 05:54:03 10° S
Cosmos 1758 Rocket 4.0 05:45:37 10° N 05:50:03 67° E 05:54:31 10° SSE
Thor Agena Rocket 3.6 05:45:18 10° S 05:50:25 62° WSW 05:55:29 10° NNW
Cosmos 1726 Rocket 3.6 05:46:20 10° SSW 05:50:42 61° W 05:55:04 10° N
Resurs 1-4 Rocket 4.2 05:56:16 10° NW 05:57:14 10° WNW 05:58:14 10° WNW
CZ-4B R/B 4.0 05:54:54 10° N 05:58:53 32° WNW 06:02:45 10° SW
USA 116 4.1 05:56:29 10° SSE 06:00:24 64° ENE 06:03:53 10° N
Cosmos 2058 Rocket 3.2 05:59:51 10° SSW 06:04:07 56° W 06:08:24 10° N
ARGOS Delta rocket 4.3 06:01:55 10° N 06:07:18 59° WNW 06:12:36 10° SSW
Delta R/B 3.0 06:10:46 10° WSW 06:12:31 47° S 06:17:33 10° E
Okean-O 3.1 06:08:51 10° N 06:13:03 44° WNW 06:17:15 10° SW
ADEOS II 2.1 06:09:34 10° N 06:14:50 75° WNW 06:20:03 10° SSW
Cosmos 2369 Rocket 2.6 06:10:21 10° SW 06:15:48 47° WNW 06:21:16 10° N
Meteor 1-21 4.3 06:11:48 10° NNW 06:17:19 61° W 06:22:48 10° S
CZ-3A R/B 4.4 06:11:51 10° SW 06:32:50 51° NW 06:38:05 10° NNE
